Temp
15 14 13 13 13 11 10 14 13 11 11 11 12 12 14 14 13 13 13 14 13 13 13 13 13 12 12 12 11 9 9 8 8 8 7 7 8 7 7 7 6 7 6
16 14 13 11 12 12 12 12 10 11 11 11 12 13 14 14 14 13 13 13 13 13 13 13 13 13 12 11 11 11 9 9 8 8 8 7 7 6 7 7 6 6 6
16 15 13 12 11 11 12 12 13 15 13 11 9 11 11 11 12 13 13 14 14 13 13 13 13 13 12 12 12 11 11 10 9 8 10 9 10 7 6 6 6 6 6
15 16 14 12 11 11 12 11 13 12 13 11 11 12 12 13 14 14 14 13 13 13 13 13 13 13 13 13 13 12 12 11 11 9 9 10 10 9 6 6 6 6 6
15 15 15 13 12 11 11 12 12 12 11 11 13 13 10 13 14 14 13 13 13 13 13 13 13 13 13 13 13 13 12 11 11 11 11 10 10 9 9 6 6 6 6
14 15 15 14 11 11 11 11 11 11 10 11 11 13 13 12 12 13 13 13 13 13 13 14 14 13 13 13 13 13 13 12 11 11 11 11 11 11 10 9 7 6 6
14 13 14 14 12 10 11 11 11 11 11 11 11 10 11 12 12 13 13 13 13 14 14 14 14 14 14 13 13 13 12 12 12 11 10 11 11 9 10 9 7 6 5
14 13 13 14 13 11 10 10 11 11 11 10 11 10 10 9 11 12 12 13 14 15 14 14 14 14 14 13 12 12 12 12 11 11 10 10 11 10 10 9 8 7 5
13 13 13 13 14 12 10 11 10 11 11 11 11 11 11 11 10 11 12 12 13 13 14 13 13 13 13 13 12 12 12 12 11 11 11 10 10 10 10 10 8 8 6
13 13 12 12 12 13 11 11 10 10 11 10 10 11 12 11 11 10 11 12 12 12 12 13 13 12 12 12 12 12 11 11 11 11 10 10 10 10 10 9 9 8 8
12 12 11 11 11 12 12 10 10 10 10 11 10 10 11 11 11 11 11 11 11 11 11 12 12 12 12 12 12 12 11 11 11 11 10 10 9 9 9 10 9 9 8
12 11 12 12 12 11 11 11 10 10 9 10 10 10 10 11 11 11 11 12 11 10 10 10 11 11 12 12 12 12 12 11 10 10 10 10 9 9 9 9 9 8 8
12 12 11 12 12 11 10 11 10 10 10 9 10 12 9 9 10 10 11 10 9 9 10 10 10 10 11 11 11 11 12 11 11 10 10 10 9 9 9 8 8 8 7
12 11 11 11 12 12 11 10 10 10 10 10 9 10 12 9 9 10 10 10 10 9 10 9 10 10 10 10 10 10 11 11 11 10 10 10 9 10 9 9 8 7 7
12 11 11 11 11 11 11 11 9 9 9 9 9 9 9 10 9 9 10 10 9 9 10 9 9 9 10 9 10 9 9 10 11 9 10 9 10 10 9 8 8 8 7
12 11 10 11 11 11 11 10 10 9 9 9 9 9 9 9 9 9 9 9 9 9 9 9 9 8 9 10 9 9 8 8 10 9 8 9 8 9 8 8 7 7 7
11 9 9 10 10 10 10 9 9 9 8 8 9 9 9 9 9 9 9 9 9 9 9 9 11 10 8 9 9 8 8 7 7 8 8 8 8 7 7 7 6 5 5
11 8 8 8 9 9 8 8 9 9 9 7 8 8 8 8 8 8 8 8 9 8 9 8 9 8 8 8 8 8 8 8 8 7 6 6 5 5 5 5 5 4 4
7 7 7 7 7 7 8 7 8 8 8 6 6 7 7 7 8 8 8 8 8 8 8 8 8 8 8 8 7 8 7 8 8 6 7 7 6 4 4 5 4 4 3
4 5 4 4 5 6 6 7 7 6 6 5 5 6 6 6 7 7 7 8 8 8 8 8 7 7 7 7 7 7 8 6 6 6 5 5 5 4 3 3 3 3 3
2 3 3 3 3 4 4 5 4 4 4 5 5 5 6 6 6 7 7 7 7 7 6 6 6 6 6 7 7 6 7 6 5 5 5 4 3 3 3 2 1 1 0
1 1 1 1 1 1 3 3 4 4 4 4 5 5 5 5 5 5 5 5 6 5 5 5 5 5 5 5 6 6 6 5 6 6 4 4 4 3 2 1 1 0 0
-0 -0 -0 0 1 2 2 3 2 3 3 4 4 4 4 4 4 4 4 4 4 4 4 4 4 5 5 6 6 6 6 5 5 4 4 4 3 1 1 0 1 -0 -0
-1 -1 -1 -1 -0 1 2 2 2 3 3 3 3 3 3 3 3 3 3 3 3 3 4 4 4 4 4 5 4 4 4 4 2 2 2 2 2 1 0 -0 -0 -1 -1
-3 -3 -3 -3 -2 0 2 2 2 2 3 2 2 2 2 2 2 2 2 2 2 2 3 3 2 3 3 3 3 3 2 2 2 2 1 1 0 0 0 -0 -1 -1 -1
-5 -4 -3 -3 -3 -1 -1 -0 1 1 2 2 1 1 1 1 1 0 1 1 1 1 2 2 2 2 2 2 2 2 1 1 1 1 0 0 -0 -0 -1 -1 -1 -1 -1
Height
1424 1424 1426 1428 1431 1436 1441 1437 1445 1454 1457 1465 1472 1478 1481 1486 1490 1495 1499 1502 1506 1510 1513 1516 1520 1522 1524 1528 1531 1535 1538 1542 1546 1549 1553 1554 1556 1558 1559 1560 1562 1562 1564
1420 1423 1424 1426 1428 1433 1435 1437 1448 1448 1455 1466 1472 1477 1481 1484 1488 1493 1497 1500 1504 1508 1511 1513 1517 1520 1523 1526 1529 1532 1535 1539 1543 1546 1550 1553 1557 1557 1558 1559 1560 1561 1562
1412 1415 1419 1419 1423 1428 1430 1435 1440 1440 1453 1461 1468 1473 1477 1481 1485 1490 1495 1499 1501 1504 1508 1512 1515 1518 1521 1523 1526 1529 1532 1535 1540 1544 1546 1549 1551 1554 1556 1557 1558 1559 1560
1405 1410 1416 1417 1421 1425 1429 1432 1431 1433 1440 1451 1461 1466 1472 1475 1481 1487 1491 1494 1498 1502 1506 1509 1512 1515 1517 1520 1523 1526 1529 1532 1535 1540 1541 1543 1545 1550 1554 1556 1556 1557 1558
1397 1402 1408 1413 1417 1420 1422 1425 1426 1428 1438 1445 1452 1462 1469 1474 1479 1483 1486 1490 1495 1499 1502 1505 1509 1512 1515 1518 1520 1522 1525 1528 1532 1535 1537 1540 1542 1545 1548 1550 1552 1554 1556
1397 1399 1403 1409 1411 1414 1417 1422 1425 1432 1439 1443 1447 1452 1458 1468 1474 1478 1482 1485 1490 1493 1497 1501 1505 1508 1511 1514 1517 1519 1522 1525 1528 1531 1533 1536 1537 1539 1543 1546 1548 1551 1553
1396 1398 1401 1404 1407 1411 1415 1420 1424 1431 1438 1441 1445 1448 1450 1458 1468 1472 1477 1480 1484 1487 1491 1496 1498 1501 1506 1510 1514 1515 1519 1521 1524 1527 1530 1532 1534 1538 1540 1544 1545 1549 1551
1397 1397 1400 1403 1407 1407 1410 1416 1421 1428 1434 1439 1440 1444 1449 1455 1459 1466 1471 1475 1480 1484 1488 1491 1495 1498 1501 1505 1509 1511 1514 1517 1520 1523 1527 1529 1530 1533 1536 1539 1542 1547 1547
1399 1400 1399 1401 1404 1405 1408 1412 1417 1419 1425 1431 1436 1440 1444 1448 1452 1459 1464 1470 1475 1480 1483 1487 1490 1493 1496 1500 1504 1507 1510 1513 1516 1519 1522 1525 1527 1527 1531 1534 1536 1540 1543
1399 1401 1400 1399 1401 1405 1406 1410 1413 1417 1417 1423 1430 1434 1437 1441 1446 1453 1458 1464 1470 1475 1478 1481 1485 1488 1490 1494 1498 1502 1505 1509 1511 1514 1518 1520 1522 1523 1525 1529 1531 1534 1539
1395 1395 1397 1399 1401 1403 1404 1404 1406 1411 1415 1415 1424 1431 1432 1439 1442 1447 1453 1458 1464 1468 1471 1475 1479 1482 1485 1488 1491 1496 1499 1504 1506 1509 1511 1516 1518 1519 1521 1522 1525 1528 1532
1393 1393 1393 1393 1393 1397 1402 1405 1405 1404 1408 1414 1417 1424 1430 1437 1440 1443 1446 1451 1455 1458 1462 1467 1471 1476 1479 1482 1485 1489 1492 1496 1500 1503 1506 1509 1512 1514 1517 1519 1520 1523 1525
1390 1391 1391 1390 1390 1390 1391 1393 1394 1396 1404 1410 1414 1416 1426 1429 1434 1438 1443 1446 1447 1449 1451 1456 1462 1467 1471 1474 1478 1482 1485 1488 1492 1497 1500 1504 1506 1508 1510 1513 1517 1519 1521
1390 1390 1389 1388 1388 1388 1389 1392 1394 1398 1402 1404 1410 1412 1415 1421 1426 1432 1435 1438 1439 1442 1447 1448 1452 1456 1460 1465 1468 1475 1477 1480 1484 1488 1492 1495 1499 1503 1506 1507 1511 1515 1518
1388 1388 1388 1388 1388 1388 1389 1391 1394 1396 1398 1402 1406 1409 1410 1413 1421 1426 1427 1431 1433 1433 1438 1437 1441 1442 1448 1455 1457 1463 1469 1472 1475 1480 1483 1487 1491 1495 1499 1502 1504 1507 1513
1386 1387 1386 1386 1386 1387 1387 1389 1391 1395 1397 1399 1402 1407 1407 1409 1415 1420 1422 1424 1427 1430 1432 1432 1435 1437 1442 1447 1451 1453 1458 1463 1464 1470 1476 1479 1485 1487 1490 1494 1499 1503 1506
1384 1384 1383 1383 1384 1385 1385 1387 1388 1391 1393 1396 1398 1401 1404 1404 1408 1413 1415 1418 1420 1424 1425 1428 1429 1433 1436 1438 1441 1449 1451 1455 1456 1461 1466 1470 1476 1481 1485 1487 1491 1496 1501
1379 1380 1379 1381 1382 1383 1383 1384 1387 1388 1390 1393 1394 1396 1400 1400 1403 1406 1408 1411 1413 1415 1417 1420 1423 1428 1429 1434 1438 1442 1444 1448 1448 1455 1456 1459 1467 1473 1481 1482 1483 1488 1493
1376 1377 1379 1380 1381 1382 1382 1383 1384 1386 1387 1391 1394 1396 1398 1396 1399 1400 1402 1406 1408 1410 1413 1414 1416 1421 1424 1430 1434 1431 1439 1440 1440 1446 1447 1450 1454 1468 1472 1474 1481 1482 1486
1375 1375 1377 1379 1381 1381 1382 1382 1383 1385 1385 1387 1390 1393 1395 1395 1396 1398 1401 1401 1403 1406 1407 1408 1413 1414 1417 1421 1427 1429 1432 1435 1438 1432 1440 1445 1446 1453 1459 1466 1473 1476 1481
1376 1375 1376 1379 1381 1382 1382 1382 1384 1385 1387 1388 1390 1391 1394 1395 1397 1398 1398 1398 1400 1400 1403 1406 1407 1408 1413 1415 1420 1425 1427 1430 1433 1422 1430 1437 1443 1446 1449 1456 1462 1464 1473
1376 1375 1378 1382 1384 1384 1383 1384 1386 1388 1389 1389 1391 1392 1394 1396 1396 1396 1395 1396 1398 1399 1401 1402 1403 1405 1407 1410 1414 1419 1424 1427 1423 1422 1427 1433 1440 1442 1445 1449 1453 1459 1463
1376 1379 1381 1383 1383 1384 1386 1388 1390 1392 1392 1393 1394 1394 1394 1395 1396 1396 1396 1396 1399 1400 1402 1401 1403 1404 1403 1406 1410 1414 1417 1420 1421 1422 1428 1432 1437 1441 1444 1447 1448 1455 1460
1380 1384 1385 1386 1386 1388 1389 1391 1394 1395 1395 1396 1397 1399 1399 1400 1399 1399 1399 1400 1401 1400 1400 1401 1404 1405 1403 1405 1408 1411 1414 1416 1421 1424 1426 1431 1434 1438 1439 1445 1447 1450 1455
1386 1387 1389 1390 1390 1393 1394 1396 1396 1397 1397 1398 1399 1401 1402 1402 1401 1401 1401 1401 1402 1402 1402 1403 1403 1403 1403 1406 1409 1412 1413 1415 1418 1422 1425 1429 1432 1434 1435 1439 1443 1449 1450
1390 1391 1393 1393 1395 1396 1398 1399 1399 1399 1399 1400 1401 1402 1402 1403 1403 1404 1403 1402 1402 1402 1402 1402 1403 1404 1406 1408 1409 1412 1414 1416 1418 1422 1426 1428 1429 1431 1433 1435 1440 1446 1448
Wind_Speed
18 17 18 22 25 30 29 20 27 22 29 36 31 28 29 29 27 27 26 26 25 25 23 21 21 21 21 21 20 20 20 18 17 18 14 10 10 11 12 9 8 7 7
19 18 19 25 32 33 27 23 30 22 16 34 35 32 31 31 30 28 28 26 26 26 24 22 22 22 21 21 22 22 22 19 21 16 14 9 7 8 9 10 9 8 8
19 20 18 22 32 36 35 30 26 24 23 33 33 30 26 29 29 30 28 28 28 27 26 24 22 22 22 22 23 23 23 23 23 16 8 8 7 14 10 11 11 10 8
17 19 21 22 29 39 40 34 31 24 17 30 40 34 34 36 36 32 32 33 31 28 27 25 24 23 23 23 23 22 23 21 24 23 19 13 12 7 9 12 13 12 10
14 17 18 21 26 30 35 39 32 26 27 39 38 38 38 39 36 36 37 35 31 29 30 29 27 25 24 23 22 23 24 23 21 24 22 18 14 13 9 12 16 16 15
7 14 17 18 21 26 29 42 43 40 34 33 40 51 51 45 38 37 39 36 35 34 33 31 28 27 25 25 23 22 22 24 22 21 22 24 21 19 13 8 14 15 16
6 10 16 19 20 25 31 33 40 44 43 32 41 51 52 51 42 41 39 38 38 39 37 34 33 31 28 26 26 24 24 25 24 24 24 22 21 15 17 11 15 16 12
4 5 10 17 21 24 31 31 34 38 43 46 44 44 50 47 44 43 42 39 40 39 38 36 35 32 30 29 28 27 26 26 26 25 25 23 21 21 18 19 20 15 12
9 4 5 11 19 25 29 31 32 32 35 36 36 42 53 49 47 45 44 41 40 41 40 39 38 36 33 31 30 29 27 27 27 27 26 26 24 24 22 21 22 19 14
6 5 2 3 13 20 23 28 31 33 32 35 36 37 37 45 48 49 48 44 40 41 41 40 40 39 37 34 32 31 29 29 28 27 28 28 26 26 24 24 24 22 15
6 6 2 3 7 15 21 23 26 29 31 29 30 32 33 37 35 46 46 47 45 44 44 41 40 39 37 35 33 32 31 30 29 29 29 29 27 27 25 25 25 25 24
6 4 7 7 5 7 16 23 23 27 29 33 34 36 40 39 38 42 43 44 48 50 45 42 41 39 38 37 35 35 33 32 31 31 30 30 29 28 26 26 26 26 25
5 7 4 8 6 7 8 13 18 23 26 28 34 33 42 44 43 40 39 36 45 46 44 45 42 39 38 38 38 37 36 35 33 32 31 31 31 31 29 28 26 26 25
6 8 7 7 8 7 9 10 14 21 26 29 31 32 35 37 39 39 38 31 33 37 45 43 43 43 40 40 38 39 39 38 36 35 34 32 32 31 31 30 28 26 27
7 7 8 10 11 9 10 12 11 15 22 27 30 35 34 30 25 32 35 35 36 40 38 37 37 38 39 37 42 41 38 41 38 36 37 35 33 32 31 30 29 28 28
9 6 9 11 12 11 10 11 11 10 13 21 26 29 28 27 27 27 33 34 34 32 34 32 30 35 32 33 33 31 39 39 37 40 40 38 36 35 32 30 28 28 30
10 6 10 11 12 12 11 10 12 12 11 14 17 19 22 25 26 25 28 32 30 30 32 33 28 31 35 31 29 27 31 38 38 40 42 41 38 37 33 31 27 26 26
11 5 9 8 8 9 9 9 10 11 13 12 14 15 18 19 22 22 25 25 26 25 25 26 22 24 19 20 16 15 13 17 23 41 42 40 37 34 33 31 31 29 27
8 5 5 4 5 6 6 5 6 7 6 6 11 13 14 14 15 18 18 21 22 22 23 21 24 29 23 24 22 18 24 24 25 33 36 39 41 35 31 28 30 28 29
6 5 5 4 3 3 3 4 3 3 5 5 6 8 10 13 13 15 19 19 19 18 17 17 19 20 24 30 25 24 20 22 27 24 34 37 39 43 36 32 29 28 30
9 11 10 8 8 6 5 4 4 2 2 2 3 4 7 9 12 14 13 13 14 14 14 16 16 17 20 22 26 23 24 22 26 20 29 35 38 39 40 42 40 34 29
15 15 14 14 14 13 12 13 10 8 6 5 4 4 5 5 5 6 7 8 9 10 11 12 13 16 18 17 18 22 22 22 19 18 24 32 36 37 39 41 38 34 33
19 17 17 18 18 18 18 18 16 13 12 10 10 9 7 6 6 6 6 6 4 3 2 2 3 5 7 14 21 25 23 20 19 19 25 31 32 31 30 33 37 33 28
21 18 19 21 22 21 22 21 15 14 13 13 13 11 10 9 8 7 7 4 4 3 2 0 2 4 4 6 9 13 16 14 14 15 18 22 26 29 29 31 30 28 28
21 20 21 21 22 20 18 15 14 12 12 13 13 12 11 11 11 9 8 7 5 3 1 0 1 1 1 3 5 8 10 12 13 13 14 18 22 27 29 29 26 27 27
25 25 23 23 21 20 20 17 14 12 12 13 13 13 12 11 11 11 10 9 8 6 4 3 2 1 1 3 5 7 8 9 10 14 18 21 24 26 23 24 25 26 28
Wind_Direction
231 221 208 215 212 202 203 207 209 207 210 197 198 196 200 200 202 201 199 197 196 193 191 190 188 185 182 182 177 176 171 170 166 160 157 161 169 172 176 176 183 181 177
217 202 198 206 193 192 195 191 202 193 242 205 210 206 207 206 207 205 203 200 200 198 196 195 194 190 185 185 184 185 177 180 178 170 154 150 173 193 183 182 177 186 193
220 199 199 202 201 198 192 198 204 206 216 213 203 203 203 205 206 208 208 207 206 203 201 199 198 195 194 195 192 193 190 188 184 190 150 161 183 176 200 195 190 198 192
220 205 198 204 205 207 207 204 198 210 199 202 206 206 211 212 214 212 210 210 208 204 204 204 202 200 200 201 200 199 199 201 196 189 200 178 179 166 166 204 199 199 195
211 206 198 199 208 213 211 208 207 204 194 197 210 214 217 221 219 213 213 212 210 208 208 208 206 205 206 207 206 206 205 209 210 210 211 196 191 174 189 180 200 207 203
192 203 202 197 205 210 217 212 213 204 205 205 207 211 218 221 217 219 217 213 211 211 211 211 210 210 210 211 211 213 214 214 214 219 220 217 212 206 191 204 205 203 208
190 194 199 197 204 204 210 214 218 214 213 210 207 214 217 218 218 222 223 217 213 214 214 212 212 212 211 214 215 215 217 219 218 222 223 222 222 222 216 197 198 183 205
167 196 211 209 201 215 209 213 217 218 224 216 217 219 219 214 215 225 227 226 223 222 218 215 217 216 214 215 219 219 220 222 225 225 226 229 224 223 216 202 206 179 212
105 92 229 221 209 216 217 211 218 219 220 226 226 225 228 228 218 224 229 228 227 227 226 221 218 218 219 220 223 225 224 226 228 229 229 230 228 227 220 213 216 211 197
73 77 96 219 216 217 228 220 221 225 224 229 234 231 235 235 229 225 233 233 230 230 230 228 225 220 221 222 224 228 228 230 231 231 231 230 230 230 225 223 221 214 210
26 4 26 167 202 212 225 234 220 225 223 219 232 232 229 235 231 232 236 241 238 232 233 233 231 229 228 227 226 230 231 232 234 234 233 234 231 232 228 227 226 222 215
21 37 30 0 301 216 207 215 227 225 223 224 221 226 234 234 238 241 242 244 240 235 230 233 237 234 234 234 233 231 233 234 235 236 235 234 231 233 232 232 227 226 219
5 356 316 332 317 280 254 230 238 238 234 229 230 231 243 242 237 238 240 241 238 241 240 235 234 236 235 237 239 237 236 238 241 240 240 238 235 234 232 232 230 226 224
330 321 322 315 317 289 259 258 231 236 235 232 227 232 238 249 246 242 234 241 250 244 242 243 242 240 236 241 236 239 237 238 240 243 243 241 239 241 236 233 232 229 227
301 314 310 306 308 286 269 254 247 229 233 233 231 231 233 244 253 240 241 245 250 246 250 245 251 242 243 243 240 234 240 236 239 242 243 243 240 242 239 237 231 229 229
300 292 302 307 305 295 274 247 238 236 238 237 242 241 239 235 229 246 244 240 237 243 254 250 262 256 250 249 240 248 240 240 237 243 243 242 240 237 233 234 234 237 231
301 297 295 300 292 289 281 251 231 229 235 234 241 243 237 240 244 244 243 242 236 238 243 243 256 256 248 247 243 250 257 248 237 242 242 244 241 237 230 228 227 229 232
296 304 310 293 271 269 280 259 241 227 236 225 235 241 246 242 243 244 241 237 237 240 242 237 234 249 246 245 237 259 265 264 265 254 242 243 241 236 232 226 221 219 220
247 252 255 248 232 240 253 253 244 241 230 197 218 232 232 238 241 244 245 240 237 238 238 238 239 238 235 230 241 254 254 255 249 249 249 247 243 228 224 226 224 219 219
179 165 138 122 147 185 190 227 220 212 204 215 224 223 225 229 234 234 237 238 242 243 242 241 242 242 244 238 235 238 245 252 246 245 251 243 236 224 215 216 219 220 226
126 122 115 108 98 102 115 119 108 119 149 169 204 212 229 228 227 228 227 226 227 229 232 233 235 235 235 216 222 229 244 251 251 249 247 237 228 223 219 216 215 215 219
104 100 99 96 94 88 93 96 101 103 114 124 136 139 148 147 146 171 189 196 196 205 216 225 228 227 227 227 226 228 240 243 255 264 255 237 231 226 216 215 219 219 222
96 94 93 90 88 92 89 91 88 92 94 95 93 91 92 98 110 106 109 108 118 137 178 208 243 229 224 232 236 235 232 240 256 262 252 240 231 220 215 218 223 225 220
87 89 91 87 85 87 91 91 85 91 95 96 94 92 92 95 97 99 100 111 98 60 31 74 218 242 252 244 239 230 232 235 246 251 249 244 232 226 224 227 233 215 224
83 83 83 82 79 83 84 84 84 87 90 92 91 87 85 84 83 84 85 87 91 90 94 307 332 332 231 218 231 232 225 225 233 239 228 216 214 211 217 222 216 224 227
90 87 84 87 82 85 83 81 86 91 94 93 89 87 86 84 83 68 77 81 76 76 77 67 52 46 257 235 213 226 228 232 232 224 224 219 217 218 219 221 226 232 233